Flag for U.S.A. Weather past 2 weeks in Pocatello, Idaho, U.S.A.

Now
64 °F

Clear.


Feels Like: 64 °F
Forecast: 50 / 81 °F
Wind: 6 mph from East

Location: Pocatello Regional Airport

Current Time: Sep 20, 2014 at 10:35:21 PM

Latest Report: Sep 20, 2014 at 9:53 PM


Visibility: 10 mi

Pressure: 30.03 "Hg

Humidity: 52%

Dew point: 46 °F

Location of PocatelloLocation

Historic Weather in Pocatello — Graph

°F

Pocatello temperature yesterday

Maximum temperature yesterday: 79 °F (at 3:53 PM)
Minimum temperature yesterday: 50 °F (at 4:53 AM)
Average temperature yesterday: 64 °F

Past Weeks' High & Low Weather Summary

 TemperatureHumidityPressure
High93 °F (Sep 17, 4:53 PM)100% (Sep 19, 2:53 AM)30.34 "Hg (Sep 19, 2:53 AM)
Low25 °F (Sep 12, 6:53 AM)9% (Sep 14, 2:53 PM)29.64 "Hg (Sep 18, 5:53 AM)
Average63 °F43%29.96 "Hg
* Reported Sep 5 8:53 PM — Sep 20 8:53 PM, Pocatello, Weather by CustomWeather, © 2014

Note: Actual official high and low records may vary slightly from our data, if they occured in-between our weather recording intervals... More about our weather records

Advertising

Pocatello weather history for previous 24 hours

 ConditionsComfort  
Time TempWeatherWind HumidityBarometerVisibility
8:53 PM
Sep 20
67 °FSunny.6 mph47%30.04 "Hg10 mi
7:53 PM73 °FSunny.6 mph38%30.04 "Hg10 mi
6:53 PM79 °FSunny.7 mph30%30.02 "Hg10 mi
5:53 PM83 °FSunny.7 mph26%30.02 "Hg10 mi
4:53 PM82 °FSunny.7 mph23%30.03 "Hg10 mi
3:53 PM82 °FSunny.8 mph25%30.05 "Hg10 mi
2:53 PM79 °FSunny.No wind29%30.07 "Hg10 mi
1:53 PM76 °FSunny.3 mph32%30.10 "Hg10 mi
12:53 PM73 °FSunny.5 mph38%30.13 "Hg10 mi
11:53 AM70 °FSunny.6 mph44%30.15 "Hg10 mi
6:53 AM44 °FClear.No wind93%30.12 "Hg10 mi
5:53 AM45 °FClear.3 mph93%30.10 "Hg10 mi
4:53 AM47 °FClear.3 mph90%30.09 "Hg10 mi
3:53 AM50 °FClear.No wind83%30.07 "Hg10 mi
2:53 AM51 °FClear.No wind80%30.06 "Hg10 mi
1:53 AM54 °FClear.7 mph74%30.05 "Hg10 mi
12:53 AM54 °FClear.3 mph74%30.03 "Hg10 mi
11:53 PM
Sep 19
56 °FClear.3 mph65%30.03 "Hg10 mi
10:53 PM60 °FClear.9 mph58%30.03 "Hg10 mi
Weather by CustomWeather, © 2014

See weather overviewHow to use our weather pages